| time (UTC) | temp C | wind direction | speed KPH | gust KPH | rain 1hr cm | rain 24hr cm | rain mn cm | humidity % | barometer mb |
| 20260506195655 | 3 | 241 | 1.6 | 9.7 | 0.03 | 0.20 | 0.79 | 92 | 1011.0 |
| 20260506194756 | 3 | 205 | 3.2 | 12.9 | 0.03 | 0.20 | 0.79 | 92 | 1011.0 |
| 20260506193855 | 3 | 210 | 0.0 | 4.8 | 0.00 | 0.18 | 0.79 | 92 | 1011.0 |
| 20260506192955 | 3 | 194 | 0.0 | 4.8 | 0.00 | 0.18 | 0.76 | 92 | 1010.9 |
| 20260506192055 | 3 | 193 | 1.6 | 9.7 | 0.00 | 0.18 | 0.76 | 92 | 1010.9 |
| 20260506191156 | 3 | 170 | 1.6 | 11.3 | 0.00 | 0.18 | 0.76 | 92 | 1010.9 |
| 20260506190255 | 3 | 55 | 1.6 | 6.4 | 0.00 | 0.18 | 0.76 | 92 | 1010.8 |
| 20260506184454 | 3 | 65 | 3.2 | 6.4 | 0.03 | 0.18 | 0.76 | 92 | 1010.6 |
| 20260506183554 | 3 | 66 | 1.6 | 4.8 | 0.03 | 0.18 | 0.76 | 92 | 1010.5 |
| 20260506182654 | 3 | 65 | 1.6 | 3.2 | 0.03 | 0.18 | 0.76 | 91 | 1010.5 |
| 20260506181754 | 3 | 65 | 1.6 | 6.4 | 0.03 | 0.18 | 0.76 | 91 | 1010.5 |
| 20260506180854 | 3 | 63 | 1.6 | 6.4 | 0.03 | 0.18 | 0.76 | 91 | 1010.4 |
| 20260506175954 | 3 | 62 | 1.6 | 4.8 | 0.05 | 0.18 | 0.76 | 91 | 1010.4 |
| 20260506174154 | 3 | 60 | 1.6 | 4.8 | 0.03 | 0.15 | 0.74 | 91 | 1010.3 |
| 20260506172354 | 3 | 55 | 3.2 | 6.4 | 0.05 | 0.15 | 0.74 | 90 | 1010.3 |
| 20260506171454 | 3 | 56 | 1.6 | 4.8 | 0.08 | 0.15 | 0.74 | 90 | 1010.1 |
| 20260506170554 | 3 | 51 | 1.6 | 4.8 | 0.10 | 0.15 | 0.74 | 89 | 1010.0 |
| 20260506165654 | 3 | 12 | 1.6 | 6.4 | 0.10 | 0.15 | 0.71 | 89 | 1009.9 |
| 20260506164754 | 3 | 323 | 1.6 | 4.8 | 0.13 | 0.15 | 0.71 | 89 | 1010.0 |
| 20260506163856 | 3 | 320 | 1.6 | 3.2 | 0.15 | 0.15 | 0.71 | 88 | 1010.0 |
| 20260506162954 | 3 | 319 | 0.0 | 3.2 | 0.15 | 0.15 | 0.71 | 88 | 1010.0 |
| 20260506161156 | 2 | 318 | 3.2 | 6.4 | 0.05 | 0.05 | 0.64 | 85 | 1010.1 |
| 20260506160254 | 3 | 324 | 6.4 | 14.5 | 0.05 | 0.05 | 0.64 | 83 | 1010.0 |
| 20260506155354 | 3 | 324 | 4.8 | 11.3 | 0.03 | 0.03 | 0.61 | 81 | 1009.9 |
| 20260506154454 | 4 | 353 | 3.2 | 6.4 | 0.03 | 0.03 | 0.61 | 81 | 1009.9 |
| 20260506153556 | 4 | 339 | 4.8 | 14.5 | 0.00 | 0.00 | 0.58 | 80 | 1009.7 |
| 20260506152655 | 4 | 288 | 4.8 | 14.5 | 0.00 | 0.00 | 0.58 | 79 | 1009.9 |
| 20260506151754 | 4 | 286 | 4.8 | 9.7 | 0.00 | 0.00 | 0.58 | 79 | 1009.8 |
| 20260506150854 | 4 | 304 | 4.8 | 11.3 | 0.00 | 0.00 | 0.58 | 79 | 1009.7 |
| 20260506145955 | 5 | 286 | 8.0 | 17.7 | 0.00 | 0.00 | 0.58 | 78 | 1009.7 |
| 20260506145054 | 5 | 281 | 9.7 | 20.9 | 0.00 | 0.00 | 0.58 | 76 | 1009.6 |
| 20260506144154 | 6 | 272 | 6.4 | 20.9 | 0.00 | 0.00 | 0.58 | 76 | 1009.6 |
| 20260506143254 | 6 | 268 | 6.4 | 14.5 | 0.00 | 0.00 | 0.58 | 76 | 1009.6 |
| 20260506142355 | 6 | 270 | 6.4 | 14.5 | 0.00 | 0.00 | 0.58 | 75 | 1009.5 |
| 20260506141454 | 6 | 279 | 8.0 | 19.3 | 0.00 | 0.00 | 0.58 | 73 | 1009.5 |
| 20260506140556 | 7 | 268 | 6.4 | 16.1 | 0.00 | 0.00 | 0.58 | 73 | 1009.5 |
| 20260506135655 | 7 | 281 | 6.4 | 16.1 | 0.00 | 0.00 | 0.58 | 72 | 1009.5 |
| 20260506134754 | 7 | 264 | 8.0 | 14.5 | 0.00 | 0.00 | 0.58 | 71 | 1009.4 |
| 20260506132954 | 8 | 248 | 4.8 | 12.9 | 0.00 | 0.00 | 0.58 | 73 | 1009.3 |
| 20260506132054 | 7 | 276 | 8.0 | 17.7 | 0.00 | 0.00 | 0.58 | 73 | 1009.3 |
| 20260506131154 | 7 | 287 | 8.0 | 17.7 | 0.00 | 0.00 | 0.58 | 75 | 1009.3 |
| 20260506130254 | 7 | 276 | 6.4 | 19.3 | 0.00 | 0.00 | 0.58 | 73 | 1009.2 |
| 20260506125354 | 7 | 276 | 8.0 | 17.7 | 0.00 | 0.00 | 0.58 | 73 | 1009.2 |
| 20260506124454 | 8 | 269 | 6.4 | 17.7 | 0.00 | 0.00 | 0.58 | 68 | 1009.2 |
| 20260506123554 | 8 | 236 | 4.8 | 14.5 | 0.00 | 0.00 | 0.58 | 66 | 1009.1 |
| 20260506122654 | 8 | 234 | 4.8 | 12.9 | 0.00 | 0.00 | 0.58 | 65 | 1009.0 |
| 20260506121754 | 8 | 224 | 4.8 | 11.3 | 0.00 | 0.00 | 0.58 | 67 | 1009.0 |
| 20260506120854 | 8 | 224 | 4.8 | 11.3 | 0.00 | 0.00 | 0.58 | 62 | 1008.9 |
| 20260506115054 | 8 | 220 | 4.8 | 11.3 | 0.00 | 0.00 | 0.58 | 62 | 1008.8 |
| 20260506114154 | 8 | 210 | 6.4 | 12.9 | 0.00 | 0.00 | 0.58 | 61 | 1008.7 |
| 20260506113253 | 8 | 244 | 4.8 | 14.5 | 0.00 | 0.00 | 0.58 | 62 | 1008.6 |
| 20260506112354 | 8 | 220 | 4.8 | 11.3 | 0.00 | 0.00 | 0.58 | 62 | 1008.6 |
| 20260506111453 | 8 | 224 | 4.8 | 11.3 | 0.00 | 0.00 | 0.58 | 64 | 1008.4 |
| 20260506110553 | 8 | 255 | 4.8 | 11.3 | 0.00 | 0.00 | 0.58 | 65 | 1008.4 |
| 20260506105654 | 8 | 235 | 4.8 | 9.7 | 0.00 | 0.03 | 0.58 | 65 | 1008.3 |
| 20260506104753 | 8 | 206 | 4.8 | 12.9 | 0.00 | 0.03 | 0.58 | 62 | 1008.2 |
| 20260506103853 | 8 | 210 | 4.8 | 16.1 | 0.00 | 0.03 | 0.58 | 62 | 1008.2 |
| 20260506102953 | 8 | 240 | 4.8 | 11.3 | 0.00 | 0.05 | 0.58 | 64 | 1008.2 |
| 20260506102054 | 8 | 219 | 4.8 | 11.3 | 0.00 | 0.08 | 0.58 | 63 | 1008.1 |
| 20260506100253 | 7 | 236 | 4.8 | 11.3 | 0.00 | 0.10 | 0.58 | 65 | 1008.0 |
| 20260506095353 | 7 | 262 | 3.2 | 9.7 | 0.00 | 0.15 | 0.58 | 65 | 1008.0 |
| 20260506093553 | 6 | 197 | 6.4 | 11.3 | 0.00 | 0.18 | 0.58 | 67 | 1007.9 |
| 20260506092653 | 6 | 197 | 6.4 | 11.3 | 0.00 | 0.23 | 0.58 | 67 | 1007.9 |
| 20260506091753 | 6 | 203 | 4.8 | 12.9 | 0.00 | 0.25 | 0.58 | 66 | 1007.9 |
| 20260506085953 | 6 | 198 | 6.4 | 11.3 | 0.00 | 0.25 | 0.58 | 70 | 1007.8 |
| 20260506085053 | 6 | 216 | 4.8 | 14.5 | 0.00 | 0.25 | 0.58 | 69 | 1007.7 |
| 20260506084153 | 6 | 214 | 3.2 | 6.4 | 0.00 | 0.25 | 0.58 | 71 | 1007.7 |
| 20260506083253 | 6 | 198 | 4.8 | 9.7 | 0.00 | 0.28 | 0.58 | 70 | 1007.7 |
| 20260506082353 | 6 | 220 | 3.2 | 8.0 | 0.00 | 0.30 | 0.58 | 70 | 1007.7 |
| 20260506081453 | 6 | 202 | 3.2 | 8.0 | 0.00 | 0.33 | 0.58 | 71 | 1007.5 |
| 20260506080553 | 5 | 181 | 3.2 | 9.7 | 0.00 | 0.36 | 0.58 | 71 | 1007.4 |
| 20260506072953 | 5 | 202 | 1.6 | 8.0 | 0.00 | 0.43 | 0.58 | 73 | 1007.2 |
| 20260506071153 | 5 | 202 | 1.6 | 6.4 | 0.00 | 0.43 | 0.58 | 75 | 1007.0 |
| 20260506070253 | 4 | 199 | 1.6 | 6.4 | 0.00 | 0.43 | 0.58 | 76 | 1006.9 |
| 20260506061753 | 3 | 210 | 3.2 | 8.0 | 0.00 | 0.43 | 0.58 | 76 | 1006.8 |
| 20260506060853 | 3 | 255 | 1.6 | 8.0 | 0.00 | 0.46 | 0.58 | 76 | 1006.6 |
| 20260506050553 | 3 | 335 | 0.0 | 6.4 | 0.00 | 0.46 | 0.58 | 81 | 1006.1 |
| 20260506043853 | 3 | 0 | 0.0 | 0.0 | 0.00 | 0.46 | 0.58 | 82 | 1005.9 |
| 20260506042953 | 3 | 36 | 0.0 | 1.6 | 0.00 | 0.46 | 0.58 | 83 | 1005.9 |
| 20260506041153 | 2 | 36 | 0.0 | 4.8 | 0.00 | 0.46 | 0.58 | 84 | 1005.7 |
| 20260506035353 | 2 | 37 | 0.0 | 1.6 | 0.00 | 0.46 | 0.58 | 84 | 1005.9 |
| 20260506033553 | 2 | 37 | 0.0 | 3.2 | 0.00 | 0.46 | 0.58 | 84 | 1005.5 |
| 20260506032653 | 2 | 37 | 0.0 | 1.6 | 0.00 | 0.46 | 0.58 | 84 | 1005.3 |
| 20260506031753 | 2 | 37 | 0.0 | 4.8 | 0.00 | 0.46 | 0.58 | 84 | 1005.3 |
| 20260506030852 | 2 | 37 | 0.0 | 1.6 | 0.00 | 0.46 | 0.58 | 84 | 1005.3 |
| 20260506025953 | 2 | 37 | 0.0 | 3.2 | 0.00 | 0.46 | 0.58 | 84 | 1005.2 |
| 20260506025052 | 2 | 37 | 1.6 | 4.8 | 0.00 | 0.48 | 0.58 | 85 | 1005.3 |
| 20260506024152 | 2 | 37 | 0.0 | 4.8 | 0.00 | 0.48 | 0.58 | 84 | 1005.1 |
| 20260506023252 | 2 | 36 | 1.6 | 4.8 | 0.00 | 0.48 | 0.58 | 85 | 1005.0 |
| 20260506022352 | 2 | 35 | 1.6 | 4.8 | 0.00 | 0.48 | 0.58 | 85 | 1005.0 |
| 20260506021452 | 2 | 0 | 0.0 | 0.0 | 0.00 | 0.48 | 0.58 | 85 | 1004.9 |
| 20260506015652 | 1 | 347 | 3.2 | 4.8 | 0.00 | 0.48 | 0.58 | 87 | 1004.8 |
| 20260506014752 | 1 | 347 | 1.6 | 4.8 | 0.00 | 0.51 | 0.58 | 87 | 1004.8 |
| 20260506012953 | 1 | 348 | 1.6 | 4.8 | 0.00 | 0.51 | 0.58 | 87 | 1004.6 |
| 20260506012052 | 1 | 347 | 1.6 | 4.8 | 0.00 | 0.51 | 0.58 | 86 | 1004.6 |
| 20260506011600 | 5 | 263 | 4.8 | 11.3 | 0.00 | 0.51 | 0.58 | 70 | 1004.7 |